Wind_Speed
66 73 75 73 72 67 60 56 53 51 48 56 59 59 56 49 45 44 46 44 42 41 37 30 24 25 29 34 36 36 36 36 35 33 32 30 28 30 34 35 39 40 44 50 53 57 57 61 64 66 67 68 69 71
73 77 75 72 72 66 59 56 53 52 50 48 55 63 59 52 48 46 45 46 44 38 37 36 38 32 27 28 30 34 38 39 36 36 35 35 35 36 38 39 45 48 52 54 55 58 63 68 70 71 71 72 73 74
78 78 74 71 69 65 59 57 55 54 52 48 49 58 65 58 52 49 48 46 47 47 42 40 39 40 38 36 34 32 32 37 40 39 40 40 40 43 45 47 50 52 55 58 63 67 71 71 72 73 73 75 77 76
78 78 73 70 68 65 62 57 54 53 52 49 46 52 63 64 59 54 51 52 50 50 50 49 49 47 47 47 48 46 47 47 47 47 47 50 53 53 54 54 56 60 63 68 68 72 70 71 75 74 77 79 80 76
78 76 73 72 69 67 62 60 55 55 54 49 48 47 51 60 60 57 55 55 55 54 53 54 52 51 51 51 52 53 54 55 54 54 55 57 58 57 55 57 59 67 72 75 73 74 73 76 77 77 80 83 79 77
79 78 76 74 71 70 65 62 59 57 57 58 55 52 50 50 52 56 56 55 56 59 58 60 59 58 57 56 56 57 58 59 60 63 63 63 66 65 61 61 67 76 78 76 73 76 81 82 81 81 84 81 79 81
82 81 79 78 75 72 70 67 63 60 58 57 56 56 56 56 57 55 53 52 52 55 55 58 60 62 64 63 64 65 66 68 70 68 67 67 69 67 64 62 74 74 75 77 80 84 83 83 84 86 84 83 86 88
86 85 84 80 78 75 71 69 66 64 62 60 59 57 56 56 55 54 55 56 56 55 53 49 50 57 61 63 66 68 70 73 71 69 67 69 68 68 62 74 75 77 79 82 84 83 83 83 83 83 85 87 90 91
85 86 84 81 77 75 74 71 68 68 67 64 62 60 57 56 55 55 55 56 56 54 52 51 54 57 61 64 66 67 68 69 67 66 69 69 66 68 73 76 77 80 81 81 80 80 81 84 85 87 89 91 93 96
82 82 82 79 80 76 76 74 70 70 69 67 65 63 63 62 61 60 57 55 52 50 49 55 60 62 67 71 73 73 73 71 68 68 72 69 66 72 77 76 76 78 79 80 82 83 85 88 91 92 94 98 101 103
77 80 82 81 81 79 77 75 74 72 71 71 69 69 69 68 67 67 65 62 60 57 57 58 61 62 63 66 70 71 70 70 68 68 71 66 64 72 74 76 78 79 82 85 87 90 91 94 97 100 102 105 108 110
67 69 73 80 83 81 81 76 74 74 74 73 74 77 77 76 75 74 70 69 68 67 64 65 68 71 72 74 75 75 76 77 74 73 74 71 72 76 79 81 83 86 88 91 93 96 99 102 105 107 110 113 115 119
58 62 64 68 71 76 84 81 78 79 77 75 76 77 79 83 84 80 79 77 78 78 77 77 77 78 78 80 82 82 83 82 84 83 82 83 85 86 89 89 91 94 95 98 101 103 106 110 113 116 119 121 124 127
59 53 54 56 58 60 64 68 72 81 87 85 81 81 82 84 86 84 87 87 87 87 88 86 87 88 88 90 92 93 94 94 94 92 93 94 97 98 98 99 102 103 104 106 109 113 115 119 122 124 126 125 124 122
60 56 54 54 56 57 57 59 62 66 71 77 81 86 90 92 92 93 95 94 92 94 97 96 95 96 96 96 97 101 103 104 105 105 104 106 108 110 110 110 112 113 116 118 119 120 122 123 121 117 114 112 108 105
69 65 62 59 56 57 57 60 60 63 65 70 77 80 81 83 86 90 94 97 101 100 98 98 99 102 103 105 106 108 111 111 112 112 114 115 116 117 119 119 119 120 120 118 115 117 114 112 111 108 107 104 103 104
68 67 65 64 63 63 62 61 61 64 65 67 72 76 75 78 81 86 89 92 96 97 98 101 103 107 110 113 115 114 116 117 117 116 116 117 118 118 119 118 116 116 115 109 106 102 101 101 102 102 103 104 99 98
78 76 75 73 70 70 70 69 68 70 71 70 69 71 73 74 79 77 80 85 91 92 92 92 94 96 99 102 102 104 105 107 108 109 110 110 109 109 108 106 103 101 102 101 100 100 101 102 101 100 96 93 93 93
77 78 78 76 75 74 72 73 73 75 77 77 78 78 80 80 80 81 83 83 84 85 85 88 91 93 96 96 98 99 99 101 103 105 107 108 108 108 109 107 105 104 104 102 102 102 101 99 98 95 92 90 87 85
74 72 72 74 74 74 75 76 77 76 79 80 80 83 83 84 84 85 87 88 89 91 93 95 93 91 92 96 98 99 99 101 104 105 105 106 108 108 109 109 108 104 102 101 100 100 98 95 93 89 86 83 81 80
71 71 72 75 76 74 73 74 74 75 77 77 77 78 78 79 80 81 81 82 83 86 87 87 88 91 94 96 97 96 99 103 106 104 104 103 102 102 102 100 100 99 98 97 95 94 91 88 86 85 83 80 77 78
67 68 70 71 73 73 74 74 77 77 79 80 80 81 81 81 82 81 81 81 82 82 82 83 83 83 84 86 88 91 92 93 94 95 96 96 98 98 95 93 91 91 91 89 87 86 86 85 82 79 77 76 74 72
61 64 66 68 70 69 71 74 73 75 75 75 76 77 78 79 79 79 80 81 81 82 82 82 82 82 82 85 86 86 87 88 88 88 88 87 87 87 87 85 83 82 81 81 79 78 77 75 74 72 71 69 67 68
48 50 51 51 53 55 59 61 64 66 66 67 68 68 70 72 73 72 73 74 76 76 77 78 78 79 80 80 80 80 81 82 81 81 79 79 80 80 78 77 75 74 72 71 72 72 71 70 69 68 68 66 65 64
49 50 50 52 55 58 58 58 59 58 60 62 62 62 64 63 63 64 65 67 66 67 67 68 69 69 70 71 71 72 72 72 72 70 69 71 72 72 71 70 69 69 67 67 66 66 66 65 64 63 64 62 61 61
44 45 48 51 51 50 49 49 50 51 52 53 54 58 59 57 57 58 61 60 60 60 61 62 63 63 63 63 63 63 64 65 65 64 62 64 64 64 65 65 66 66 63 61 61 63 64 64 63 62 61 59 57 56
41 42 44 45 44 43 44 44 45 46 47 48 49 50 50 51 53 54 55 55 55 54 54 53 52 51 52 53 56 58 59 60 60 60 60 60 60 60 60 60 60 61 62 61 60 59 59 60 59 57 56 55 54 53
36 36 38 37 38 37 38 39 40 41 42 42 44 45 46 47 48 48 48 48 47 47 46 46 47 49 51 53 54 56 56 57 55 54 56 56 55 56 55 55 54 55 56 56 56 55 54 54 53 53 53 52 52 52
32 32 32 33 33 34 36 37 38 39 40 41 42 42 43 43 43 43 42 42 43 44 45 46 46 46 47 49 49 50 50 50 51 49 48 48 49 49 50 50 50 50 50 51 49 49 51 51 51 52 53 53 52 51
27 27 27 28 29 30 31 32 32 33 35 36 36 37 37 37 38 39 39 39 40 40 43 44 44 45 44 43 44 46 46 46 46 47 46 45 45 46 46 46 46 46 46 46 47 48 46 46 45 45 45 47 48 48
26 27 27 28 28 30 30 30 31 31 32 33 34 35 36 36 37 37 37 36 37 39 41 41 41 41 42 42 42 42 44 44 45 45 45 45 45 45 45 45 46 47 47 47 47 48 47 46 45 44 42 41 42 42
23 24 24 25 25 26 27 28 29 30 32 33 34 34 33 32 32 33 34 35 37 37 38 38 39 38 40 40 40 40 39 40 40 41 42 43 44 45 46 46 47 47 47 47 46 46 44 44 43 43 42 41 39 38
23 23 24 24 24 24 25 25 26 28 29 31 31 31 30 30 31 32 34 34 34 35 35 36 37 37 37 37 37 38 39 40 41 42 42 43 43 43 42 42 43 43 42 41 42 42 43 42 41 40 38 38 38 38
Wind_Direction
178 176 176 180 183 188 191 192 189 186 195 197 197 195 198 201 201 203 212 215 216 216 218 223 226 232 232 236 241 239 242 248 255 260 260 260 268 271 276 281 285 290 293 294 297 296 299 302 307 309 310 311 315 316
177 176 180 183 186 189 191 194 192 189 195 201 200 200 200 202 205 205 212 219 221 222 221 226 235 238 240 239 241 245 247 249 252 254 256 260 266 271 276 283 287 291 292 290 292 296 299 304 305 307 309 310 314 314
177 180 182 184 187 190 193 197 197 193 194 203 206 205 204 205 208 211 213 221 224 228 232 235 241 244 249 253 255 253 255 251 250 255 262 263 268 277 282 283 286 286 285 287 292 297 300 302 302 306 306 309 309 309
179 182 184 186 190 193 195 199 200 200 199 201 207 208 207 207 211 214 217 219 222 226 231 236 240 243 247 252 258 260 266 268 268 267 269 273 274 275 278 279 281 283 284 287 293 296 299 299 302 302 305 306 306 304
183 184 187 190 192 196 199 201 202 204 203 203 208 212 213 213 217 221 224 227 231 233 233 236 239 243 246 250 254 258 261 262 263 264 267 270 272 273 278 283 285 285 288 291 295 295 296 297 300 302 304 304 303 303
187 189 191 192 194 197 200 203 204 207 210 207 208 213 218 220 222 225 228 233 235 237 239 241 243 244 246 250 254 255 258 260 263 267 271 274 274 277 279 283 285 285 288 290 292 293 296 299 300 301 301 300 300 302
192 193 194 196 197 199 202 205 206 208 211 214 216 216 217 218 220 223 227 233 237 240 243 245 248 250 252 253 255 256 259 261 264 269 271 272 274 278 280 283 279 284 287 289 291 294 296 298 298 296 297 298 300 303
195 196 198 198 201 202 204 208 210 211 212 215 217 220 223 225 227 229 232 234 235 237 241 245 250 252 253 254 256 259 261 263 265 268 269 270 275 279 282 277 282 284 286 288 290 293 294 295 294 295 296 298 300 302
200 202 202 203 203 205 207 209 213 216 217 219 220 222 225 227 229 232 234 237 240 243 245 249 251 254 259 258 258 260 261 264 266 268 269 271 277 282 280 280 283 284 285 287 289 292 292 293 294 295 296 298 299 300
205 208 208 206 209 211 212 213 216 221 222 225 227 227 230 233 235 236 237 239 242 245 245 247 251 254 259 263 264 266 267 270 271 273 273 276 278 278 278 282 284 285 286 289 289 289 290 291 292 294 295 297 299 301
210 212 212 214 214 216 217 218 221 222 225 229 230 234 236 238 240 241 242 242 244 246 247 250 253 254 256 259 263 266 268 270 272 271 273 274 275 274 277 279 280 282 284 286 288 289 290 291 292 294 296 298 300 302
214 217 219 220 219 219 221 223 225 227 229 232 234 236 237 239 240 242 245 248 250 250 251 252 255 257 259 261 263 265 267 269 270 269 271 273 274 275 276 278 280 282 284 286 287 289 291 293 295 296 298 300 301 302
223 220 223 225 226 227 225 225 228 230 231 234 237 238 241 242 244 246 246 249 251 251 252 253 253 257 258 260 263 265 266 267 269 271 272 274 275 276 277 279 280 281 283 285 287 289 291 292 294 295 297 298 299 302
230 229 230 227 225 229 228 228 233 236 237 239 240 242 245 248 247 248 250 250 250 252 253 254 256 259 261 262 263 265 267 269 269 270 271 274 275 276 277 278 280 282 283 285 286 288 289 293 295 296 297 298 299 302
235 234 234 232 231 231 235 235 234 232 234 236 239 242 244 246 248 250 250 250 252 254 255 255 257 260 261 263 265 267 269 270 271 273 274 275 276 278 280 281 282 283 284 286 288 289 291 292 295 297 299 301 302 303
237 242 243 242 240 239 240 232 235 236 235 238 241 244 245 246 248 250 251 252 253 254 256 258 259 261 262 263 265 266 267 269 272 274 275 277 278 280 282 283 284 285 287 290 292 293 295 296 297 298 299 300 301 305
241 243 243 244 246 249 248 248 244 240 246 244 242 241 243 245 247 249 251 253 253 255 257 258 259 260 262 263 265 267 269 271 272 274 275 277 279 281 283 284 286 287 290 292 292 293 294 297 298 300 302 301 304 306
241 243 245 248 251 253 253 253 255 255 256 257 256 251 247 251 249 250 253 254 254 257 259 261 262 263 264 265 269 271 271 272 273 274 275 276 278 281 284 287 288 288 288 290 292 295 296 298 300 302 303 306 308 307
242 244 246 248 250 253 255 258 258 258 258 259 260 258 259 259 259 258 257 257 255 255 259 261 262 263 266 268 268 269 271 273 274 275 277 280 282 284 287 289 291 293 294 296 297 299 300 301 302 304 305 305 305 305
243 243 245 247 250 253 254 255 256 257 258 258 258 258 259 259 261 261 261 261 262 263 264 265 266 268 268 268 269 271 273 274 276 278 279 282 283 284 286 288 291 293 294 296 297 298 299 301 301 302 302 303 305 306
241 243 244 247 249 250 251 252 254 255 256 257 258 258 260 261 263 264 264 265 266 266 268 269 269 269 269 270 271 273 274 274 275 277 278 281 283 284 286 289 291 293 295 297 298 298 299 299 300 300 302 303 304 304
241 242 244 246 248 250 252 254 254 255 257 259 261 262 263 264 265 266 268 269 269 269 270 269 269 270 271 272 273 274 275 277 279 281 282 284 286 288 290 291 292 294 294 295 295 296 297 297 299 300 300 301 301 302
242 243 245 246 248 250 252 254 256 257 258 259 260 261 262 263 263 264 264 265 267 268 269 270 272 273 274 275 276 277 279 280 281 282 284 286 287 289 291 292 292 291 291 293 295 296 296 297 298 298 299 301 302 302
244 245 247 249 250 250 250 252 252 255 257 258 260 260 261 261 262 263 264 265 265 267 269 271 273 274 276 277 279 280 281 282 283 285 287 289 289 289 288 288 290 293 294 294 294 295 297 297 298 300 301 302 302 301
245 245 246 248 248 249 250 251 253 255 256 258 260 261 263 265 265 266 267 268 270 271 273 273 275 276 277 279 279 280 282 284 286 286 285 285 285 288 290 292 293 294 295 295 296 296 296 297 298 298 298 300 300 300
247 249 249 249 252 254 255 256 256 256 257 258 259 260 262 265 268 269 269 271 272 273 274 275 276 278 280 282 284 285 284 282 282 285 287 288 288 290 292 293 294 295 295 296 297 297 298 298 298 299 300 300 300 299
251 252 253 255 256 256 258 257 257 258 259 259 261 262 263 264 266 267 270 272 273 275 277 279 282 283 282 280 279 279 281 284 286 287 288 289 290 291 291 292 293 294 295 296 296 295 295 295 297 299 300 300 300 300
251 252 254 257 258 258 257 257 257 258 259 260 261 263 264 265 267 269 273 276 278 280 281 280 279 278 279 280 280 281 282 284 287 288 288 288 290 291 291 292 292 293 294 295 296 297 297 298 300 301 300 300 301 301
253 254 255 256 257 256 257 257 257 259 260 262 264 267 269 273 275 277 278 279 279 279 279 278 278 278 278 279 281 283 285 286 287 287 287 288 290 291 292 295 296 297 297 298 298 299 300 301 301 301 302 303 303 304
259 260 262 264 264 265 265 265 266 267 268 269 270 270 272 273 273 274 275 276 278 280 281 282 283 284 286 287 288 289 290 291 293 295 297 297 298 298 299 299 299 299 299 299 299 299 298 298 299 299 299 300 302 303
256 257 259 261 262 264 265 266 267 269 270 272 272 272 273 274 276 278 280 281 280 278 280 282 285 287 288 289 290 292 294 296 297 298 299 301 301 301 301 303 303 303 304 305 306 307 307 307 307 306 306 304 302 301
256 259 261 263 264 265 264 265 266 268 271 273 276 277 278 279 279 279 280 280 280 281 284 286 287 289 291 293 294 295 296 296 297 299 300 300 300 301 303 304 304 305 305 305 305 305 306 306 306 306 306 305 305 304
264 262 263 266 268 269 272 273 273 273 273 273 275 279 282 283 283 282 281 284 287 289 290 291 292 292 293 295 296 297 298 298 298 299 299 299 300 302 302 304 304 306 306 307 308 309 309 309 309 308 308 308 308 308
Height
10317 10333 10349 10365 10379 10391 10403 10413 10425 10434 10447 10457 10467 10477 10488 10497 10506 10515 10522 10528 10535 10541 10547 10552 10557 10560 10562 10564 10567 10571 10573 10575 10577 10579 10580 10579 10581 10581 10579 10578 10575 10574 10571 10566 10562 10557 10557 10551 10548 10541 10534 10527 10522 10513
10320 10336 10350 10364 10377 10390 10401 10411 10422 10432 10443 10454 10464 10474 10484 10493 10502 10509 10516 10522 10528 10535 10540 10545 10549 10553 10555 10557 10560 10562 10565 10565 10568 10567 10569 10570 10572 10570 10570 10570 10564 10563 10558 10554 10549 10544 10540 10537 10532 10527 10520 10512 10506 10498
10321 10337 10351 10364 10376 10388 10398 10408 10417 10429 10438 10449 10459 10468 10478 10487 10495 10503 10509 10515 10521 10527 10533 10538 10542 10545 10549 10550 10552 10554 10556 10557 10557 10558 10559 10560 10560 10559 10559 10557 10555 10549 10545 10541 10537 10532 10526 10523 10518 10513 10506 10500 10493 10485
10323 10337 10350 10362 10374 10385 10395 10405 10415 10424 10434 10444 10454 10463 10472 10480 10488 10495 10501 10507 10512 10518 10523 10528 10532 10536 10539 10541 10541 10544 10545 10546 10548 10548 10549 10548 10548 10548 10547 10545 10541 10532 10529 10523 10526 10518 10517 10508 10502 10498 10492 10484 10475 10467
10323 10336 10348 10358 10370 10381 10391 10401 10410 10420 10429 10438 10448 10458 10467 10474 10482 10488 10493 10499 10503 10508 10513 10516 10521 10526 10528 10529 10531 10532 10533 10534 10533 10533 10534 10534 10533 10534 10536 10534 10527 10511 10508 10509 10510 10501 10499 10494 10487 10481 10474 10465 10457 10450
10320 10331 10342 10352 10364 10375 10386 10396 10405 10415 10423 10431 10439 10448 10457 10466 10472 10479 10485 10490 10493 10498 10502 10506 10511 10513 10517 10520 10521 10521 10520 10520 10519 10519 10520 10521 10515 10517 10525 10522 10508 10492 10491 10491 10492 10484 10478 10472 10467 10461 10454 10447 10439 10432
10315 10327 10337 10348 10359 10370 10380 10390 10400 10410 10419 10427 10435 10441 10448 10454 10459 10466 10474 10477 10482 10488 10492 10497 10500 10502 10505 10506 10505 10505 10505 10504 10504 10508 10508 10506 10501 10502 10507 10507 10483 10484 10478 10474 10470 10466 10463 10456 10448 10441 10434 10428 10420 10413
10311 10321 10332 10344 10355 10366 10377 10387 10396 10404 10411 10420 10427 10434 10441 10447 10453 10459 10463 10466 10470 10475 10479 10487 10489 10485 10485 10488 10488 10486 10486 10484 10489 10493 10493 10487 10490 10489 10496 10474 10474 10468 10464 10460 10456 10452 10444 10437 10430 10424 10417 10411 10402 10393
10313 10323 10333 10343 10355 10364 10372 10382 10391 10398 10405 10413 10420 10426 10433 10439 10443 10447 10452 10455 10460 10467 10472 10476 10473 10470 10468 10468 10469 10468 10468 10469 10474 10477 10474 10474 10479 10478 10464 10461 10459 10452 10447 10442 10437 10433 10426 10417 10412 10406 10399 10392 10383 10375
10312 10322 10333 10342 10352 10360 10369 10377 10386 10393 10399 10406 10412 10417 10421 10426 10430 10436 10441 10446 10451 10456 10461 10459 10456 10458 10455 10451 10450 10451 10449 10453 10460 10460 10454 10461 10466 10454 10443 10443 10439 10433 10426 10424 10418 10414 10410 10400 10393 10386 10379 10371 10361 10352
10307 10316 10326 10337 10347 10355 10363 10370 10378 10385 10391 10397 10401 10405 10409 10413 10418 10424 10429 10434 10438 10444 10446 10447 10443 10442 10439 10437 10432 10430 10434 10435 10440 10441 10436 10444 10446 10432 10429 10424 10421 10419 10411 10403 10397 10390 10384 10378 10370 10363 10356 10348 10339 10330
10301 10311 10320 10329 10338 10346 10354 10361 10368 10374 10380 10385 10389 10389 10393 10398 10402 10408 10418 10422 10427 10429 10433 10430 10424 10421 10423 10419 10418 10420 10417 10415 10420 10421 10420 10424 10421 10415 10410 10406 10402 10397 10392 10384 10375 10367 10360 10353 10346 10339 10331 10323 10314 10304
10291 10302 10311 10318 10326 10333 10343 10350 10356 10361 10365 10369 10374 10374 10376 10380 10385 10396 10404 10406 10406 10409 10410 10410 10409 10404 10404 10402 10399 10400 10398 10400 10397 10400 10402 10401 10397 10394 10388 10386 10380 10374 10371 10363 10356 10351 10341 10333 10326 10319 10311 10302 10292 10281
10283 10291 10299 10306 10313 10320 10328 10335 10341 10345 10351 10355 10357 10359 10361 10366 10370 10377 10380 10383 10386 10386 10388 10389 10390 10389 10387 10382 10380 10378 10376 10377 10377 10381 10380 10375 10370 10368 10366 10362 10359 10354 10349 10344 10337 10329 10321 10313 10305 10296 10287 10278 10269 10258
10273 10281 10288 10294 10300 10307 10313 10319 10323 10327 10330 10333 10336 10337 10343 10347 10350 10351 10355 10360 10361 10365 10369 10368 10369 10368 10367 10363 10362 10357 10353 10351 10352 10353 10354 10351 10347 10342 10342 10339 10335 10329 10323 10317 10311 10306 10300 10292 10281 10269 10259 10251 10244 10232
10262 10268 10272 10278 10284 10290 10295 10300 10304 10308 10311 10314 10318 10321 10324 10326 10329 10332 10334 10335 10339 10343 10344 10345 10344 10344 10344 10342 10341 10337 10331 10331 10328 10327 10325 10322 10319 10316 10308 10304 10303 10298 10295 10290 10282 10276 10269 10262 10253 10244 10233 10225 10216 10205
10247 10253 10260 10265 10271 10275 10279 10283 10287 10290 10293 10297 10298 10300 10302 10304 10307 10309 10312 10313 10315 10318 10319 10319 10321 10321 10321 10319 10319 10316 10312 10311 10307 10303 10299 10295 10291 10287 10282 10277 10273 10268 10264 10259 10253 10247 10240 10234 10226 10217 10207 10196 10187 10175
10236 10241 10245 10249 10253 10258 10262 10266 10270 10271 10273 10275 10277 10281 10283 10285 10287 10289 10290 10291 10294 10295 10296 10297 10297 10297 10295 10295 10294 10292 10290 10285 10279 10277 10274 10270 10267 10263 10257 10253 10248 10243 10237 10231 10226 10220 10213 10206 10197 10188 10180 10171 10160 10147
10220 10225 10229 10234 10239 10243 10247 10249 10251 10253 10255 10257 10259 10261 10263 10263 10265 10267 10268 10269 10271 10272 10274 10274 10273 10271 10271 10272 10269 10264 10262 10261 10258 10253 10248 10244 10239 10232 10227 10224 10220 10214 10208 10202 10194 10188 10181 10173 10166 10159 10152 10143 10136 10125
10205 10209 10213 10217 10221 10224 10229 10231 10232 10234 10235 10237 10238 10239 10239 10240 10242 10243 10244 10245 10247 10249 10249 10247 10250 10251 10249 10244 10242 10240 10239 10236 10231 10225 10220 10216 10211 10206 10201 10198 10194 10188 10182 10176 10170 10163 10155 10148 10139 10133 10126 10117 10111 10103
10188 10191 10194 10197 10200 10205 10210 10211 10211 10213 10214 10216 10217 10217 10218 10218 10219 10220 10221 10223 10224 10222 10223 10225 10224 10221 10218 10218 10217 10215 10211 10206 10201 10198 10196 10193 10188 10183 10177 10173 10169 10162 10156 10150 10144 10136 10128 10121 10115 10106 10099 10092 10085 10077
10172 10176 10178 10181 10183 10187 10190 10192 10192 10193 10194 10195 10196 10196 10198 10198 10198 10199 10200 10200 10198 10199 10200 10198 10198 10197 10196 10195 10192 10187 10183 10179 10176 10173 10171 10166 10161 10155 10152 10148 10144 10137 10129 10124 10118 10113 10105 10096 10090 10085 10078 10071 10064 10057
10159 10162 10164 10166 10169 10174 10175 10172 10175 10175 10175 10176 10176 10176 10177 10177 10177 10178 10179 10177 10178 10175 10174 10174 10174 10173 10173 10168 10164 10162 10160 10157 10153 10150 10146 10143 10138 10132 10126 10122 10118 10113 10106 10099 10094 10089 10082 10075 10069 10062 10055 10049 10044 10037
10145 10147 10149 10153 10154 10154 10154 10155 10154 10154 10155 10155 10156 10156 10155 10154 10155 10156 10157 10156 10153 10154 10154 10153 10152 10152 10148 10145 10142 10139 10136 10132 10129 10126 10123 10120 10113 10106 10101 10096 10092 10089 10085 10080 10073 10066 10059 10053 10047 10040 10034 10030 10025 10019
10126 10128 10131 10131 10130 10130 10133 10134 10136 10139 10139 10136 10137 10137 10134 10136 10137 10137 10136 10134 10135 10136 10137 10134 10131 10130 10127 10124 10120 10116 10113 10110 10106 10104 10102 10096 10088 10084 10079 10075 10071 10065 10063 10057 10051 10046 10039 10035 10029 10023 10017 10013 10007 10000
10109 10111 10111 10111 10112 10116 10119 10119 10120 10120 10120 10121 10121 10118 10117 10119 10120 10119 10115 10117 10117 10116 10115 10112 10111 10110 10108 10104 10101 10096 10092 10087 10083 10082 10081 10075 10070 10066 10062 10056 10049 10042 10040 10038 10034 10027 10019 10014 10008 10003 9998 9993 9988 9982
10096 10097 10097 10099 10100 10103 10103 10104 10105 10105 10105 10105 10104 10104 10104 10104 10103 10101 10100 10100 10098 10098 10098 10097 10095 10093 10090 10087 10082 10076 10072 10069 10067 10064 10061 10057 10053 10048 10044 10039 10034 10028 10021 10017 10013 10010 10004 9997 9991 9987 9982 9975 9970 9964
10084 10086 10086 10088 10088 10090 10090 10091 10091 10091 10090 10090 10089 10089 10089 10088 10088 10088 10087 10086 10084 10083 10082 10080 10078 10075 10072 10068 10063 10059 10056 10053 10052 10050 10044 10039 10036 10032 10028 10023 10019 10013 10006 10001 9996 9991 9985 9980 9975 9969 9963 9958 9952 9946
10074 10075 10075 10076 10077 10077 10078 10078 10078 10077 10077 10077 10077 10077 10076 10076 10075 10074 10073 10073 10071 10068 10065 10062 10060 10058 10055 10052 10048 10045 10042 10038 10034 10032 10032 10027 10021 10017 10012 10006 10001 9997 9991 9985 9981 9976 9969 9964 9959 9953 9946 9940 9935 9930
10064 10065 10065 10066 10067 10067 10067 10067 10067 10066 10066 10065 10064 10064 10063 10062 10061 10059 10059 10058 10057 10054 10050 10047 10044 10042 10040 10038 10034 10030 10026 10022 10018 10014 10010 10007 10003 9999 9994 9990 9986 9981 9976 9971 9965 9959 9956 9952 9946 9941 9935 9929 9922 9916
10055 10055 10056 10056 10057 10056 10056 10056 10055 10055 10054 10053 10051 10050 10049 10049 10048 10047 10045 10045 10043 10039 10036 10034 10032 10029 10026 10023 10021 10017 10012 10008 10004 9999 9995 9991 9987 9982 9978 9974 9969 9963 9958 9953 9948 9942 9937 9932 9927 9923 9920 9915 9910 9906
10047 10047 10047 10048 10048 10047 10046 10045 10044 10043 10042 10040 10039 10038 10038 10038 10037 10035 10033 10031 10028 10026 10024 10022 10019 10016 10013 10009 10006 10003 10000 9995 9991 9987 9983 9978 9974 9969 9965 9960 9954 9949 9945 9940 9934 9929 9924 9919 9914 9910 9905 9900 9896 9892
10039 10039 10038 10038 10037 10037 10036 10035 10034 10032 10031 10029 10029 10029 10028 10027 10025 10022 10019 10017 10015 10013 10011 10008 10005 10002 9999 9997 9993 9989 9986 9982 9978 9974 9970 9965 9961 9955 9951 9947 9941 9936 9931 9926 9922 9916 9912 9907 9902 9897 9892 9888 9883 9879